This is the latest recevied weather packets stored in our database for station/object KK7DS. If no packets are shown the sender has not sent any weather packets the latest 10 day(s).
| Time | Temp. | Humidity | Pressure | Rain* | Wind** | Luminosity | Snow |
|---|---|---|---|---|---|---|---|
| 1777767245 | 21.11° C | 62% | 1012 hPa | 0 mm | - | - | - |
| 1777766765 | 20.56° C | 62% | 1012.1 hPa | 0 mm | - | - | - |
| 1777766180 | 20.56° C | 63% | 1012.1 hPa | 0 mm | - | - | - |
| 1777765665 | 20° C | 65% | 1012.3 hPa | 0 mm | - | - | - |
| 1777765074 | 20.56° C | 65% | 1012.4 hPa | 0 mm | - | - | - |
| 1777764525 | 20.56° C | 64% | 1012.6 hPa | 0 mm | - | - | - |
| 1777763422 | 20.56° C | 64% | 1012.6 hPa | 0 mm | - | - | - |
| 1777762875 | 20.56° C | 64% | 1012.8 hPa | 0 mm | - | - | - |
| 1777762375 | 20° C | 65% | 1012.9 hPa | 0 mm | - | - | - |
| 1777761888 | 19.44° C | 66% | 1013 hPa | 0 mm | - | - | - |
| 1777761350 | 20° C | 65% | 1013.2 hPa | 0 mm | - | - | - |
| 1777760865 | 19.44° C | 66% | 1013.3 hPa | 0 mm | - | - | - |
| 1777760340 | 19.44° C | 68% | 1013.5 hPa | 0 mm | - | - | - |
| 1777759755 | 18.89° C | 68% | 1013.6 hPa | 0 mm | - | - | - |
| 1777758630 | 18.89° C | 68% | 1013.7 hPa | 0 mm | - | - | - |
| 1777758075 | 17.78° C | 70% | 1013.8 hPa | 0 mm | - | - | - |
| 1777757485 | 18.33° C | 69% | 1014 hPa | 0 mm | - | - | - |
| 1777756930 | 17.78° C | 70% | 1014.1 hPa | 0 mm | - | - | - |
| 1777756443 | 17.78° C | 70% | 1014.2 hPa | 0 mm | - | - | - |
| 1777755869 | 17.78° C | 71% | 1014.3 hPa | 0 mm | - | - | - |
| 1777755322 | 17.78° C | 70% | 1014.6 hPa | 0 mm | - | - | - |
| 1777754725 | 17.78° C | 71% | 1014.9 hPa | 0 mm | - | - | - |
| 1777754188 | 16.67° C | 75% | 1014.9 hPa | 0 mm | - | - | - |
| 1777753589 | 15.56° C | 77% | 1014.9 hPa | 0 mm | - | - | - |
| 1777753050 | 15° C | 77% | 1015.1 hPa | 0 mm | - | - | - |
* Rain latest hour (hover to see other rain measurements)
** Current wind speed in m/s (hover to see current wind gust speed)